Meteo pe oră la Dzierzazna

Astăzi, 3 Martie, Miercuri

Timp Temperatura Precipitaţii Vânt Presiune Umiditate
00:00 +3°C° 0 mm 0 m/s 762 mmHg 86%
01:00 +3°C° 0 mm 0 m/s 762 mmHg 87%
02:00 +3°C° 0 mm 0 m/s 762 mmHg 87%
03:00 +3°C° 0 mm 1 m/s 761 mmHg 87%
04:00 +3°C° 0 mm 1 m/s 761 mmHg 87%
05:00 +3°C° 0 mm 1 m/s 761 mmHg 87%
06:00 +3°C° 0 mm 1 m/s 761 mmHg 87%
07:00 +3°C° 0 mm 1 m/s 761 mmHg 86%
08:00 +5°C° 0 mm 1 m/s 760 mmHg 80%
09:00 +5°C° 0 mm 2 m/s 760 mmHg 73%
10:00 +7°C° 0 mm 2 m/s 760 mmHg 66%
11:00 +9°C° 0 mm 2 m/s 759 mmHg 61%
12:00 +10°C° 0 mm 2 m/s 759 mmHg 57%
13:00 +12°C° 0 mm 2 m/s 758 mmHg 52%
14:00 +13°C° 0 mm 2 m/s 757 mmHg 53%
15:00 +13°C° 0 mm 2 m/s 757 mmHg 54%
16:00 +13°C° 0 mm 2 m/s 756 mmHg 55%
17:00 +12°C° 0 mm 2 m/s 756 mmHg 58%
18:00 +9°C° 0 mm 2 m/s 755 mmHg 62%
19:00 +8°C° 0 mm 2 m/s 755 mmHg 65%
20:00 +7°C° 0 mm 3 m/s 754 mmHg 68%
21:00 +7°C° 0 mm 3 m/s 754 mmHg 70%
22:00 +5°C° 0 mm 3 m/s 753 mmHg 72%
23:00 +5°C° 0 mm 4 m/s 753 mmHg 76%

Mâine, 4 Martie, Joi

Timp Temperatura Precipitaţii Vânt Presiune Umiditate
00:00 +4°C° 0 mm 4 m/s 753 mmHg 80%
01:00 +4°C° 0 mm 4 m/s 752 mmHg 85%
02:00 +4°C° 0 mm 4 m/s 752 mmHg 84%
03:00 +3°C° 0 mm 5 m/s 751 mmHg 84%
04:00 +3°C° 0 mm 5 m/s 750 mmHg 84%
05:00 +3°C° 0 mm 5 m/s 750 mmHg 87%
06:00 +3°C° 0 mm 5 m/s 750 mmHg 91%
07:00 +3°C° 0 mm 5 m/s 750 mmHg 94%
08:00 +4°C° 0 mm 6 m/s 749 mmHg 89%
09:00 +4°C° 0 mm 6 m/s 749 mmHg 83%
10:00 +5°C° 0 mm 6 m/s 749 mmHg 78%
11:00 +5°C° 0 mm 7 m/s 749 mmHg 74%
12:00 +6°C° 0 mm 7 m/s 749 mmHg 69%
13:00 +8°C° 0 mm 7 m/s 748 mmHg 65%
14:00 +7°C° 0 mm 6 m/s 748 mmHg 67%
15:00 +5°C° 0 mm 6 m/s 747 mmHg 70%
16:00 +4°C° 0 mm 6 m/s 747 mmHg 72%
17:00 +3°C° 0 mm 5 m/s 747 mmHg 73%
18:00 +2°C° 0 mm 5 m/s 747 mmHg 73%
19:00 +1°C° 0 mm 5 m/s 748 mmHg 74%
20:00 +1°C° 0 mm 4 m/s 748 mmHg 77%
21:00 +1°C° 0 mm 4 m/s 748 mmHg 79%
22:00 +1°C° 0 mm 3 m/s 748 mmHg 82%
23:00 0°C° 0.1 mm 4 m/s 748 mmHg 84%

Poimâine, 5 Martie, Vineri

Timp Temperatura Precipitaţii Vânt Presiune Umiditate
00:00 -1°C° 0.1 mm 4 m/s 749 mmHg 86%
01:00 -2°C° 0.1 mm 5 m/s 749 mmHg 88%
02:00 -2°C° 0 mm 5 m/s 749 mmHg 84%
03:00 -2°C° 0 mm 5 m/s 750 mmHg 79%
04:00 -2°C° 0 mm 5 m/s 750 mmHg 75%
05:00 -3°C° 0 mm 4 m/s 750 mmHg 77%
06:00 -3°C° 0 mm 4 m/s 751 mmHg 79%
07:00 -4°C° 0 mm 4 m/s 752 mmHg 80%
08:00 -3°C° 0 mm 4 m/s 752 mmHg 72%
09:00 -2°C° 0 mm 4 m/s 752 mmHg 64%
10:00 0°C° 0 mm 4 m/s 753 mmHg 56%
11:00 0°C° 0 mm 4 m/s 753 mmHg 52%
12:00 +1°C° 0 mm 4 m/s 753 mmHg 48%
13:00 +3°C° 0 mm 4 m/s 754 mmHg 43%
14:00 +3°C° 0 mm 4 m/s 754 mmHg 43%
15:00 +1°C° 0 mm 4 m/s 754 mmHg 43%
16:00 +1°C° 0 mm 4 m/s 754 mmHg 42%
17:00 0°C° 0 mm 4 m/s 754 mmHg 47%
18:00 0°C° 0 mm 3 m/s 755 mmHg 51%
19:00 -1°C° 0 mm 3 m/s 756 mmHg 56%
20:00 -1°C° 0 mm 3 m/s 756 mmHg 58%
21:00 -1°C° 0 mm 3 m/s 756 mmHg 61%
22:00 -1°C° 0 mm 3 m/s 757 mmHg 64%
23:00 -2°C° 0 mm 3 m/s 757 mmHg 66%

6 Martie, Sâmbătă

Timp Temperatura Precipitaţii Vânt Presiune Umiditate
00:00 -2°C° 0 mm 3 m/s 758 mmHg 69%
01:00 -2°C° 0 mm 3 m/s 758 mmHg 72%
02:00 -2°C° 0 mm 3 m/s 759 mmHg 71%
03:00 -2°C° 0 mm 3 m/s 759 mmHg 69%
04:00 -2°C° 0 mm 3 m/s 759 mmHg 68%
05:00 -2°C° 0 mm 3 m/s 760 mmHg 69%
06:00 -4°C° 0 mm 3 m/s 760 mmHg 71%
07:00 -4°C° 0 mm 3 m/s 761 mmHg 72%
08:00 -2°C° 0 mm 2 m/s 761 mmHg 62%
09:00 -1°C° 0 mm 2 m/s 761 mmHg 53%
10:00 +1°C° 0 mm 2 m/s 762 mmHg 44%
11:00 +1°C° 0 mm 3 m/s 761 mmHg 43%
12:00 +1°C° 0 mm 3 m/s 761 mmHg 42%
13:00 +1°C° 0 mm 4 m/s 761 mmHg 41%
14:00 +1°C° 0 mm 4 m/s 761 mmHg 42%
15:00 +1°C° 0 mm 4 m/s 761 mmHg 42%
16:00 +1°C° 0 mm 4 m/s 760 mmHg 43%
17:00 0°C° 0 mm 4 m/s 760 mmHg 47%
18:00 0°C° 0 mm 3 m/s 760 mmHg 51%
19:00 -1°C° 0 mm 3 m/s 760 mmHg 55%
20:00 -1°C° 0 mm 3 m/s 760 mmHg 54%
21:00 -3°C° 0 mm 4 m/s 760 mmHg 54%
22:00 -3°C° 0 mm 4 m/s 759 mmHg 54%
23:00 -4°C° 0 mm 5 m/s 759 mmHg 53%

7 Martie, Duminică

Timp Temperatura Precipitaţii Vânt Presiune Umiditate
00:00 -4°C° 0 mm 5 m/s 759 mmHg 52%
01:00 -4°C° 0 mm 5 m/s 758 mmHg 52%
02:00 -4°C° 0 mm 5 m/s 758 mmHg 51%
03:00 -4°C° 0 mm 6 m/s 757 mmHg 51%
04:00 -4°C° 0 mm 6 m/s 756 mmHg 51%
05:00 -4°C° 0 mm 6 m/s 756 mmHg 51%
06:00 -3°C° 0 mm 6 m/s 756 mmHg 51%
07:00 -3°C° 0 mm 6 m/s 756 mmHg 51%
08:00 -2°C° 0 mm 7 m/s 755 mmHg 50%
09:00 -1°C° 0 mm 7 m/s 755 mmHg 50%
10:00 0°C° 0 mm 7 m/s 755 mmHg 49%
11:00 +2°C° 0 mm 7 m/s 755 mmHg 49%
12:00 +2°C° 0 mm 7 m/s 754 mmHg 49%
13:00 +3°C° 0 mm 7 m/s 754 mmHg 49%
14:00 +3°C° 0 mm 7 m/s 753 mmHg 52%
15:00 +2°C° 0 mm 6 m/s 753 mmHg 54%
16:00 +2°C° 0 mm 6 m/s 752 mmHg 57%
17:00 +1°C° 0 mm 5 m/s 752 mmHg 64%
18:00 -1°C° 0 mm 4 m/s 752 mmHg 71%
19:00 -1°C° 0 mm 2 m/s 752 mmHg 78%
20:00 -1°C° 0 mm 2 m/s 752 mmHg 80%
21:00 -2°C° 0 mm 2 m/s 751 mmHg 82%
22:00 -2°C° 0 mm 2 m/s 751 mmHg 83%
23:00 -2°C° 0 mm 2 m/s 751 mmHg 83%

8 Martie, Luni

Timp Temperatura Precipitaţii Vânt Presiune Umiditate
00:00 -2°C° 0 mm 3 m/s 751 mmHg 83%
01:00 -2°C° 0 mm 3 m/s 750 mmHg 84%
02:00 -3°C° 0 mm 4 m/s 750 mmHg 83%
03:00 -3°C° 0 mm 4 m/s 749 mmHg 82%
04:00 -4°C° 0 mm 5 m/s 749 mmHg 81%
05:00 -4°C° 0 mm 5 m/s 749 mmHg 81%
06:00 -4°C° 0 mm 5 m/s 749 mmHg 81%
07:00 -4°C° 0 mm 6 m/s 749 mmHg 81%
08:00 -3°C° 0.3 mm 6 m/s 750 mmHg 83%
09:00 -2°C° 0.3 mm 5 m/s 750 mmHg 86%
10:00 -1°C° 0.3 mm 5 m/s 750 mmHg 88%
11:00 0°C° 0.1 mm 5 m/s 751 mmHg 79%
12:00 0°C° 0.1 mm 4 m/s 751 mmHg 69%
13:00 +1°C° 0.1 mm 4 m/s 751 mmHg 59%
14:00 +2°C° 0 mm 3 m/s 751 mmHg 57%
15:00 +2°C° 0 mm 3 m/s 751 mmHg 55%
16:00 +1°C° 0 mm 3 m/s 751 mmHg 53%
17:00 0°C° 0 mm 3 m/s 752 mmHg 60%
18:00 -1°C° 0 mm 3 m/s 753 mmHg 67%
19:00 -2°C° 0 mm 3 m/s 753 mmHg 74%
20:00 -4°C° 0 mm 3 m/s 754 mmHg 75%
21:00 -4°C° 0 mm 4 m/s 754 mmHg 77%
22:00 -4°C° 0 mm 4 m/s 755 mmHg 79%
23:00 -5°C° 0 mm 4 m/s 755 mmHg 80%
Arată mai mult

Formular de consimțământ

Meteoprog și furnizorii noștri de servicii pot stoca și accesa date personale, precum cookies, identificatori de dispozitiv sau alte tehnologii similare pe dispozitivul dumneavoastră și procesa astfel de date pentru a personaliza conținutul și reclamele, dar și pentru a oferi caracteristici de social media și pentru a analiza traficul.

  • Stocarea și/sau accesarea informațiilor pe dispozitivul dumneavoastră

    Cookies, identificatori de dispozitiv sau alte informații pot fi stocate sau accesate pe dispozitiv în scopurile indicate mai sus.

  • Reclame și conținut personalizat, evaluarea reclamelor și a conținutului, informații despre audiențe și dezvoltarea produselor

    Reclamele și conținutul pot fi personalizate pe baza unui profil. Pot fi adăugate date suplimentare pentru a personaliza mai bine reclamele și conținutul. Performanța reclamelor și conținutului poate fi măsurată. Pot fi obținute informații despre utilizatorii care au văzut reclamele și conținutul. Aceste date pot fi utilizate pentru a dezvolta sau îmbunătăți experiența utilizatorilor, sistemele și software-ul.

Dând clic pe ‘Sunt de acord’, permiteți utilizarea cookie-urilor menționate, a identificatorilor de dispozitiv, balizelor web sau altor tehnologii similare. Setările pot fi modificate din browser-ul dispozitivului dumneavoastră.

În anumite scopuri, interesele legitime pot prima asupra consimțământului. Puteți citi mai multe informații în acest sens în Politica privind Confidențialitatea Datelor și Cookie.